Погода в Ванкареме

Россия / Чукотский автономный округ     67°50′27″N   175°50′17″W
темп.,
°C
ветер,
м/с
пор.,
м/с
влажн.,
%
обл.,
%
осадки,
мм/ч
давл.,
гПа
погр.,
м
11 апреля, вс
вс1100:00−20всв4696100 0.0 1026107
03:00−21всв4797100 0.0 1026132
06:00−20св3796100 0.0 1027210
09:00−19св5690100 0.0 1027391
12:00−18св5684100 0.0 1027484
15:00−18ссв6787100 0.0 1026517
18:00−19ссв5993100 0.0 1027279
21:00−22с599799 0.0 1027151
12 апреля, пн
пн1200:00−25с5109875 0.0 1026151
03:00−27ссз612100100 0.0 1025165
06:00−27ссз71410094 0.0 1024221
09:00−24ссз8159799 0.0 1023367
12:00−21с8149175 0.0 1021395
15:00−20ссз91690100 0.0 1018410
18:00−20ссз91689100 0.0 1017353
21:00−21ссз91691100 0.0 1016315
13 апреля, вт
вт1300:00−21ссз81692100 0.0 1014305
03:00−20ссз91694100 0.0 1013327
06:00−19ссз91593100 0.0 1013394
09:00−17ссз91393100 0.0 1013438
12:00−14с91288100 0.0 1012550
15:00−13с91289100 0.0 1012624
18:00−13с81290100 0.0 1012577
21:00−13с81292100 0.1 1013517
14 апреля, ср
ср1400:00−14ссз71193100 0.3 1013458
03:00−14ссз81293100 0.3 1014451
06:00−14ссз81294100 0.5 1015515
09:00−13ссз81293100 0.6 1015578
12:00−11с81193100 1.3 1016668
15:00−11с7993100 0.8 1017640
18:00−11ссз71094100 1.5 1018582
21:00−12сз61095100 1.0 1019477
15 апреля, чт
чт1500:00−12сз61095100 2.5 1019444
03:00−13зсз61095100 1.2 1020459
06:00−13зсз61094100 1.9 1020480
09:00−12зсз6991100 0.2 1021594
12:00−11зсз5886100 0.3 1022592
15:00−9з238688 0.0 1022387
18:00−12ююв339553 0.1 102232
21:00−16ю45925 0.0 102239